TimeEST,TemperatureF,Dew PointF,Humidity,Sea Level PressureIn,VisibilityMPH,Wind Direction,Wind SpeedMPH,Gust SpeedMPH,PrecipitationIn,Events,Conditions,WindDirDegrees,DateUTC
12:53 AM,23.0,18.0,81,30.19,4.0,SW,4.6,-,0.00,Snow,Light Snow,220,2013-01-03 05:53:00
1:53 AM,24.1,17.1,75,30.18,8.0,SW,6.9,-,0.00,,Overcast,230,2013-01-03 06:53:00
2:53 AM,24.1,17.1,75,30.19,10.0,SW,4.6,-,N/A,,Overcast,230,2013-01-03 07:53:00
3:53 AM,23.0,16.0,74,30.18,10.0,SSW,8.1,-,N/A,,Overcast,200,2013-01-03 08:53:00
4:53 AM,23.0,16.0,74,30.16,10.0,SSW,9.2,-,N/A,,Overcast,200,2013-01-03 09:53:00
5:53 AM,21.9,15.1,75,30.16,6.0,SSW,10.4,-,0.00,,Haze,200,2013-01-03 10:53:00
6:53 AM,21.9,14.0,72,30.16,10.0,South,11.5,-,0.00,,Overcast,190,2013-01-03 11:53:00
7:53 AM,21.9,12.9,68,30.14,10.0,South,12.7,-,N/A,,Overcast,180,2013-01-03 12:53:00
8:53 AM,21.0,14.0,74,30.14,10.0,South,13.8,-,N/A,,Overcast,190,2013-01-03 13:53:00
9:34 AM,21.2,15.8,80,30.10,2.0,South,13.8,-,0.00,Snow,Light Snow,180,2013-01-03 14:34:00
9:46 AM,21.2,15.8,80,30.10,3.0,South,13.8,19.6,0.00,Snow,Light Snow,190,2013-01-03 14:46:00
9:53 AM,21.9,16.0,78,30.13,4.0,South,12.7,20.7,0.00,Snow,Light Snow,190,2013-01-03 14:53:00
10:53 AM,24.1,17.1,75,30.12,10.0,SSW,15.0,-,0.00,,Overcast,200,2013-01-03 15:53:00
11:53 AM,26.1,18.0,71,30.08,10.0,SSW,10.4,-,N/A,,Overcast,200,2013-01-03 16:53:00
12:53 PM,28.0,17.1,63,30.05,10.0,SW,12.7,21.9,N/A,,Overcast,220,2013-01-03 17:53:00
1:53 PM,28.9,15.1,56,30.04,10.0,WSW,12.7,24.2,N/A,,Overcast,250,2013-01-03 18:53:00
2:20 PM,28.4,17.6,64,30.01,10.0,SW,13.8,27.6,N/A,,Overcast,230,2013-01-03 19:20:00
2:53 PM,27.0,19.0,72,30.04,7.0,SW,13.8,20.7,0.00,Snow,Light Snow,230,2013-01-03 19:53:00
3:53 PM,28.0,19.9,72,30.04,6.0,SW,18.4,-,0.00,Snow,Light Snow,230,2013-01-03 20:53:00
4:27 PM,28.4,21.2,74,30.01,1.8,SW,17.3,24.2,0.00,Snow,Light Snow,230,2013-01-03 21:27:00
4:53 PM,28.0,21.9,78,30.05,1.2,SW,18.4,25.3,0.00,Snow,Light Snow,230,2013-01-03 21:53:00
5:10 PM,28.4,21.2,74,30.02,2.5,SW,15.0,24.2,0.00,Snow,Light Snow,230,2013-01-03 22:10:00
5:19 PM,28.4,23.0,80,30.02,3.0,SW,17.3,24.2,0.00,Snow,Light Snow,220,2013-01-03 22:19:00
5:29 PM,28.4,23.0,80,30.02,2.5,SW,18.4,25.3,0.00,Snow,Light Snow,220,2013-01-03 22:29:00
5:46 PM,28.4,24.8,86,30.02,3.0,SW,18.4,25.3,0.00,Snow,Light Snow,230,2013-01-03 22:46:00
5:53 PM,28.9,24.1,82,30.05,3.0,SW,18.4,24.2,0.00,Snow,Light Snow,230,2013-01-03 22:53:00
6:03 PM,28.4,24.8,86,30.03,2.5,SW,15.0,23.0,0.00,Snow,Light Snow,230,2013-01-03 23:03:00
6:12 PM,28.4,24.8,86,30.03,2.5,SW,18.4,24.2,0.00,Snow,Light Snow,220,2013-01-03 23:12:00
6:28 PM,28.4,24.8,86,30.03,3.0,SW,17.3,24.2,0.00,Snow,Light Snow,230,2013-01-03 23:28:00
6:40 PM,28.4,24.8,86,30.04,2.0,WSW,12.7,19.6,0.01,Snow,Light Snow,240,2013-01-03 23:40:00
6:53 PM,28.9,25.0,85,30.07,5.0,WSW,10.4,-,0.01,Snow,Light Snow,250,2013-01-03 23:53:00
7:18 PM,30.2,26.6,86,30.05,6.0,West,13.8,23.0,0.00,Snow,Light Snow,280,2013-01-04 00:18:00
7:53 PM,30.9,26.1,82,30.09,4.0,West,18.4,27.6,0.00,Snow,Light Snow,280,2013-01-04 00:53:00
8:53 PM,30.0,24.1,79,30.09,5.0,West,18.4,27.6,0.00,,Haze,270,2013-01-04 01:53:00
9:53 PM,30.0,23.0,75,30.10,4.0,West,15.0,26.5,0.00,Snow,Light Snow,270,2013-01-04 02:53:00
10:53 PM,30.0,23.0,75,30.09,7.0,West,15.0,23.0,0.00,,Overcast,270,2013-01-04 03:53:00
11:53 PM,30.9,24.1,76,30.09,6.0,WNW,17.3,25.3,0.00,,Haze,290,2013-01-04 04:53:00